STARLINK-5753 (55581 NORAD) Tracking and Keplerian Element Data

This shows tracking and keplerian element data for the satellite.

Feedback or suggestion? Click here.




ElementValue
Catalog55581
NameSTARLINK-5753
Epoch Orbit654
Epoch Day85.25001157
Epoch Year2023
RAAN110.1626
Inclination42.9963
Eccentricity0.0001209
Argument of Perigee270.3031
Mean Anonmoly23.6093
Mean Motion15.0679645
Decay Rate-0.0121479
L11 55581U 23020N 23085.25001157 -.01214790 00000+0 -87656-1 0 9998
L22 55581 42.9963 110.1626 0001209 270.3031 23.6093 15.06796450 6545



Live tracking and technical data element details for STARLINK-5753 (NORAD 55581). STARLINK-5753 can be tracked NOW for your location showing map with azimuth and elevation plus other details from your city location.







IsCatalogInMostPopularTable: catalog: 55581, numindb: -1

Insert: records affected: 1


GetName: 55581 STARLINK-5753

Hit Count: inserted at: Tue, 28 Mar 2023 01:32:55 GMT